Temp_Advection
nan nan nan nan nan nan nan nan nan nan nan nan nan nan nan nan nan nan nan nan nan nan nan nan nan nan nan
nan -0 0 0 0 0 0 0 0 0 0 0 0 0 -0 0 0 -0 -0 -0 -0 0 -0 0 0 0 nan
nan 0 0 0 -0 0 0 1 0 0 0 0 -0 0 0 -0 0 0 -0 -0 -0 0 0 0 0 1 nan
nan 0 0 0 0 0 1 0 0 0 0 0 0 -0 -0 0 -0 -0 -0 -0 -0 0 0 0 0 0 nan
nan 0 0 0 -0 0 1 0 0 0 0 0 -0 -0 -0 -0 -0 0 0 -0 -0 0 0 0 0 0 nan
nan 0 0 0 0 0 0 0 0 0 0 -0 -0 -0 -0 -0 -0 0 0 0 0 0 0 0 0 0 nan
nan 0 0 0 0 0 1 1 -0 -0 0 0 -0 -0 -0 0 0 0 0 0 0 0 0 0 0 0 nan
nan 0 0 0 0 1 0 -0 -0 -0 0 -0 -0 0 0 0 0 0 0 0 0 0 0 0 0 0 nan
nan 0 0 0 0 -0 -0 -0 -0 -0 0 0 -0 0 0 -0 -0 0 0 0 0 0 0 0 0 0 nan
nan -0 0 0 0 0 -0 -0 -0 -0 0 0 0 0 0 -0 -0 0 0 0 0 0 0 0 0 0 nan
nan 0 0 0 0 -0 0 0 0 -0 0 0 0 0 0 -0 0 0 0 0 0 0 -0 -0 0 0 nan
nan 0 0 0 0 0 0 0 -0 0 0 0 0 0 0 0 -0 0 0 0 0 -0 -0 -0 -0 0 nan
nan 0 0 0 0 0 0 0 0 0 0 0 0 0 0 -0 -0 0 0 0 -0 0 0 0 -0 -0 nan
nan 0 -0 0 0 -0 -0 0 0 0 0 0 0 0 -0 0 -0 0 0 -0 -0 0 0 -0 -0 -0 nan
nan 0 0 -0 -0 -0 0 0 0 -0 0 0 0 0 0 0 -0 0 -0 -0 0 -0 -0 -0 0 0 nan
nan 0 -0 0 0 0 0 0 0 0 0 0 0 0 0 -0 -0 -0 -0 0 0 0 -0 -0 0 0 nan
nan nan nan nan nan nan nan nan nan nan nan nan nan nan nan nan nan nan nan nan nan nan nan nan nan nan nan
Wind_Speed
24 22 22 23 19 20 22 19 18 18 18 17 16 15 13 13 14 14 9 8 3 4 4 4 17 20 24
22 19 18 18 20 21 17 18 18 18 19 20 14 13 12 11 12 13 11 7 9 3 4 5 9 10 20
21 20 20 20 20 20 20 19 19 17 17 17 14 13 12 11 11 12 12 9 11 12 7 7 10 13 13
21 19 20 19 20 21 21 20 17 17 18 17 14 14 14 12 12 12 12 12 13 13 14 11 8 10 11
18 19 20 21 20 20 20 17 17 18 19 17 15 14 14 13 12 12 13 13 13 15 15 16 14 13 12
19 20 20 19 17 17 16 16 16 18 16 17 15 14 13 13 11 11 12 13 13 14 15 17 17 16 17
18 16 15 15 15 16 16 16 16 13 9 14 13 13 12 11 10 8 7 9 11 13 14 15 16 17 18
17 17 17 16 16 14 15 17 15 13 12 12 11 12 10 9 8 7 6 5 6 7 8 11 11 12 13
14 16 17 19 18 15 15 15 14 13 13 13 11 11 10 9 9 7 8 8 8 8 6 6 6 7 8
10 10 10 11 13 14 14 14 14 10 11 12 10 10 8 11 10 10 9 9 8 9 8 8 8 9 9
11 10 10 11 12 13 14 14 13 12 7 13 11 13 9 4 11 12 11 11 11 10 10 10 10 11 10
13 12 12 12 12 12 12 13 12 12 10 12 9 12 12 9 7 10 12 12 13 13 13 13 13 13 13
15 15 14 13 13 12 12 11 10 10 10 11 12 11 12 12 10 11 11 12 13 15 15 15 15 15 16
16 16 15 14 13 13 13 12 10 11 11 12 11 12 13 13 13 13 12 11 11 15 17 16 15 15 17
18 17 16 15 14 14 14 12 12 11 11 12 12 12 13 12 12 13 14 15 17 18 18 19 19 20 21
19 18 17 17 17 16 14 13 13 13 13 12 12 13 13 13 14 14 15 16 17 17 18 19 21 20 20
20 19 19 18 18 16 15 15 16 14 14 13 14 14 15 14 14 11 13 14 15 17 17 18 20 21 20
Wind_Direction
272 274 274 278 253 268 263 261 256 261 273 293 282 273 269 258 245 254 258 232 239 278 267 219 216 227 219
269 270 269 264 263 252 251 251 252 261 278 290 267 261 256 258 250 248 253 233 211 187 246 182 194 196 194
268 267 267 266 265 257 253 251 256 265 280 279 260 252 252 253 255 250 246 237 219 214 167 172 203 201 207
265 269 268 264 257 254 252 251 254 266 276 267 256 254 261 261 254 252 247 242 232 220 223 213 185 182 187
259 260 261 260 259 253 246 251 259 267 269 250 250 256 258 258 254 248 247 240 235 229 226 228 230 220 213
256 259 262 259 248 244 245 249 258 264 247 249 248 252 255 257 257 251 246 240 235 233 230 232 233 233 237
256 255 252 248 245 245 244 248 248 248 242 243 245 249 249 250 251 246 236 231 231 233 233 234 235 236 238
251 243 244 245 245 241 239 240 241 236 239 243 245 244 240 236 236 226 221 216 212 219 223 225 229 233 237
246 244 238 237 237 233 232 231 231 234 235 232 233 231 226 225 230 227 227 221 214 213 208 204 210 217 223
236 234 232 228 224 224 223 225 228 237 229 221 221 211 220 226 228 229 225 227 225 217 216 220 224 230 235
229 229 225 220 215 216 220 220 221 222 228 208 215 208 213 207 222 227 229 230 224 232 243 243 241 243 248
224 221 220 219 217 215 217 218 216 216 217 209 219 215 220 226 224 230 234 237 236 243 253 254 251 245 254
224 223 218 219 219 214 212 213 216 219 221 219 215 215 225 230 238 240 242 243 245 251 254 256 258 261 264
223 219 220 221 217 213 209 211 223 230 229 232 232 232 237 240 243 245 244 240 247 252 256 259 262 263 265
217 218 216 212 214 215 220 223 231 237 242 242 242 244 246 245 242 244 249 251 256 261 264 266 268 270 271
219 219 218 216 213 215 223 231 235 239 243 242 243 245 250 253 251 248 250 253 256 259 262 267 271 272 273
223 222 220 216 216 221 229 234 235 235 241 246 249 250 253 255 254 244 249 252 257 258 260 264 271 277 277
Height
1497 1497 1499 1498 1496 1497 1499 1498 1499 1499 1499 1498 1497 1497 1497 1497 1497 1498 1498 1499 1499 1499 1499 1498 1500 1502 1506
1493 1492 1494 1495 1493 1493 1493 1494 1494 1494 1495 1494 1493 1493 1494 1494 1494 1495 1495 1496 1498 1499 1499 1499 1499 1501 1503
1487 1488 1489 1491 1490 1490 1488 1490 1492 1490 1491 1490 1491 1490 1491 1491 1492 1492 1492 1493 1496 1497 1498 1499 1499 1502 1502
1485 1483 1487 1486 1485 1485 1487 1487 1487 1487 1488 1488 1488 1488 1489 1490 1488 1489 1489 1491 1493 1495 1497 1498 1499 1501 1504
1478 1480 1481 1481 1478 1482 1483 1483 1483 1485 1485 1484 1485 1485 1485 1486 1485 1486 1487 1488 1489 1491 1494 1496 1498 1500 1502
1474 1475 1474 1476 1477 1478 1478 1479 1480 1480 1481 1481 1482 1482 1483 1483 1482 1483 1485 1485 1486 1489 1491 1493 1496 1497 1500
1467 1468 1470 1472 1473 1473 1474 1477 1478 1478 1478 1478 1479 1478 1479 1480 1481 1481 1482 1483 1484 1486 1488 1490 1492 1494 1496
1463 1464 1465 1467 1469 1470 1471 1473 1474 1474 1475 1475 1476 1476 1477 1478 1479 1480 1481 1482 1483 1484 1485 1487 1489 1491 1493
1458 1459 1460 1462 1464 1465 1467 1470 1470 1470 1471 1472 1472 1473 1475 1476 1477 1478 1480 1481 1482 1484 1485 1486 1488 1489 1491
1454 1455 1456 1458 1460 1462 1464 1466 1467 1468 1468 1470 1470 1472 1473 1473 1474 1476 1478 1480 1481 1483 1484 1486 1487 1488 1489
1450 1452 1454 1456 1457 1459 1460 1462 1463 1465 1466 1467 1468 1470 1471 1471 1472 1474 1476 1478 1479 1481 1482 1484 1485 1486 1487
1448 1450 1452 1453 1455 1456 1458 1459 1461 1463 1464 1466 1467 1468 1470 1471 1471 1472 1473 1475 1477 1478 1479 1481 1482 1483 1483
1445 1447 1449 1450 1452 1454 1456 1458 1459 1460 1462 1463 1465 1466 1468 1469 1469 1470 1471 1472 1473 1474 1475 1476 1477 1478 1479
1442 1444 1446 1447 1449 1451 1453 1455 1457 1459 1460 1462 1462 1463 1465 1466 1467 1467 1468 1470 1470 1470 1471 1472 1473 1473 1474
1438 1440 1442 1444 1446 1449 1451 1453 1454 1456 1457 1459 1460 1460 1461 1462 1463 1464 1464 1465 1466 1466 1467 1468 1468 1468 1468
1433 1436 1438 1440 1443 1445 1447 1449 1451 1452 1454 1455 1456 1457 1457 1459 1459 1460 1460 1461 1462 1462 1462 1462 1462 1463 1463
1430 1432 1434 1436 1439 1441 1443 1445 1447 1448 1450 1451 1452 1453 1453 1454 1455 1455 1456 1457 1457 1458 1458 1459 1458 1457 1458